Time,TemperatureF,DewpointF,PressureIn,WindDirection,WindDirectionDegrees,WindSpeedMPH,WindSpeedGustMPH,Humidity,HourlyPrecipIn,Conditions,Clouds,dailyrainin,SoftwareType,DateUTC
2013-03-03 00:02:00,23.0,-99.9,30.82,NNE,18,18.0,22.0,-999,-99.99,,,-99.99,,2013-03-03 05:02:00,
2013-03-03 00:12:00,23.0,-99.9,30.12,NNE,18,18.0,22.0,-999,-99.99,,,-99.99,,2013-03-03 05:12:00,
2013-03-03 00:22:00,23.0,-99.9,30.12,NNE,18,18.0,22.0,-999,-99.99,,,-99.99,,2013-03-03 05:22:00,
2013-03-03 00:32:00,23.0,-99.9,30.12,NNE,18,18.0,22.0,-999,-99.99,,,-99.99,,2013-03-03 05:32:00,
2013-03-03 00:40:00,23.0,-99.9,30.11,NNE,22,17.0,20.0,-999,-99.99,,,-99.99,,2013-03-03 05:40:00,
2013-03-03 01:02:00,23.0,-99.9,30.81,NNE,22,17.0,20.0,-999,-99.99,,,-99.99,,2013-03-03 06:02:00,
2013-03-03 01:11:00,23.0,-99.9,30.11,NNE,22,17.0,20.0,-999,-99.99,,,-99.99,,2013-03-03 06:11:00,
2013-03-03 01:22:00,23.0,-99.9,30.11,NNE,22,17.0,20.0,-999,-99.99,,,-99.99,,2013-03-03 06:22:00,
2013-03-03 01:32:00,23.0,-99.9,30.11,NNE,22,17.0,20.0,-999,-99.99,,,-99.99,,2013-03-03 06:32:00,
2013-03-03 01:40:00,23.0,-99.9,30.10,NNE,13,17.0,21.0,-999,-99.99,,,-99.99,,2013-03-03 06:40:00,
2013-03-03 02:01:00,23.0,-99.9,30.80,NNE,13,17.0,21.0,-999,-99.99,,,-99.99,,2013-03-03 07:01:00,
2013-03-03 02:11:00,23.0,-99.9,30.10,NNE,13,17.0,21.0,-999,-99.99,,,-99.99,,2013-03-03 07:11:00,
2013-03-03 02:22:00,23.0,-99.9,30.10,NNE,13,17.0,21.0,-999,-99.99,,,-99.99,,2013-03-03 07:22:00,
2013-03-03 02:32:00,23.0,-99.9,30.10,NNE,13,17.0,21.0,-999,-99.99,,,-99.99,,2013-03-03 07:32:00,
2013-03-03 03:01:00,22.0,-99.9,30.80,NNE,21,12.0,18.0,-999,-99.99,,,-99.99,,2013-03-03 08:01:00,
2013-03-03 03:11:00,22.0,-99.9,30.10,NNE,21,12.0,18.0,-999,-99.99,,,-99.99,,2013-03-03 08:11:00,
2013-03-03 03:21:00,22.0,-99.9,30.10,NNE,19,16.0,23.0,-999,-99.99,,,-99.99,,2013-03-03 08:21:00,
2013-03-03 03:32:00,22.0,-99.9,30.80,NNE,19,16.0,23.0,-999,-99.99,,,-99.99,,2013-03-03 08:32:00,
2013-03-03 03:40:00,22.0,-99.9,30.08,NNE,31,11.0,16.0,-999,-99.99,,,-99.99,,2013-03-03 08:40:00,
2013-03-03 03:42:00,22.0,-99.9,30.10,NNE,19,16.0,23.0,-999,-99.99,,,-99.99,,2013-03-03 08:42:00,
2013-03-03 03:54:00,22.0,-99.9,30.10,NNE,19,16.0,23.0,-999,-99.99,,,-99.99,,2013-03-03 08:54:00,
2013-03-03 04:02:00,22.0,-99.9,30.78,NNE,31,11.0,16.0,-999,-99.99,,,-99.99,,2013-03-03 09:02:00,
2013-03-03 04:12:00,22.0,-99.9,30.08,NNE,31,11.0,16.0,-999,-99.99,,,-99.99,,2013-03-03 09:12:00,
2013-03-03 04:22:00,22.0,-99.9,30.08,NNE,31,11.0,16.0,-999,-99.99,,,-99.99,,2013-03-03 09:22:00,
2013-03-03 04:32:00,22.0,-99.9,30.08,NNE,31,11.0,16.0,-999,-99.99,,,-99.99,,2013-03-03 09:32:00,
2013-03-03 04:40:00,22.0,-99.9,30.08,NNE,22,13.0,16.0,-999,-99.99,,,-99.99,,2013-03-03 09:40:00,
2013-03-03 05:01:00,22.0,-99.9,30.78,NNE,22,13.0,16.0,-999,-99.99,,,-99.99,,2013-03-03 10:01:00,
2013-03-03 05:12:00,22.0,-99.9,30.08,NNE,22,13.0,16.0,-999,-99.99,,,-99.99,,2013-03-03 10:12:00,
2013-03-03 05:22:00,22.0,-99.9,30.08,NNE,22,13.0,16.0,-999,-99.99,,,-99.99,,2013-03-03 10:22:00,
2013-03-03 05:32:00,22.0,-99.9,30.08,NNE,22,13.0,16.0,-999,-99.99,,,-99.99,,2013-03-03 10:32:00,
2013-03-03 05:40:00,21.0,-99.9,30.09,North,354,11.0,16.0,-999,-99.99,,,-99.99,,2013-03-03 10:40:00,
2013-03-03 06:02:00,21.0,-99.9,30.79,North,354,11.0,16.0,-999,-99.99,,,-99.99,,2013-03-03 11:02:00,
2013-03-03 06:11:00,21.0,-99.9,30.09,North,354,11.0,16.0,-999,-99.99,,,-99.99,,2013-03-03 11:11:00,
2013-03-03 06:22:00,21.0,-99.9,30.09,North,354,11.0,16.0,-999,-99.99,,,-99.99,,2013-03-03 11:22:00,
2013-03-03 06:32:00,21.0,-99.9,30.09,North,354,11.0,16.0,-999,-99.99,,,-99.99,,2013-03-03 11:32:00,
2013-03-03 07:02:00,20.0,-99.9,30.79,NNE,13,15.0,18.0,-999,-99.99,,,-99.99,,2013-03-03 12:02:00,
2013-03-03 07:11:00,20.0,-99.9,30.09,NNE,13,15.0,18.0,-999,-99.99,,,-99.99,,2013-03-03 12:11:00,
2013-03-03 07:22:00,20.0,-99.9,30.09,NNE,13,15.0,18.0,-999,-99.99,,,-99.99,,2013-03-03 12:22:00,
2013-03-03 07:32:00,20.0,-99.9,30.79,NNE,14,14.0,20.0,-999,-99.99,,,-99.99,,2013-03-03 12:32:00,
2013-03-03 07:40:00,20.0,-99.9,30.11,North,6,16.0,18.0,-999,-99.99,,,-99.99,,2013-03-03 12:40:00,
2013-03-03 07:43:00,20.0,-99.9,30.79,NNE,14,14.0,20.0,-999,-99.99,,,-99.99,,2013-03-03 12:43:00,
2013-03-03 07:53:00,20.0,-99.9,30.09,NNE,14,14.0,20.0,-999,-99.99,,,-99.99,,2013-03-03 12:53:00,
2013-03-03 08:02:00,20.0,-99.9,30.81,North,6,16.0,18.0,-999,-99.99,,,-99.99,,2013-03-03 13:02:00,
2013-03-03 08:11:00,20.0,-99.9,30.11,North,6,16.0,18.0,-999,-99.99,,,-99.99,,2013-03-03 13:11:00,
2013-03-03 08:22:00,20.0,-99.9,30.11,North,6,16.0,18.0,-999,-99.99,,,-99.99,,2013-03-03 13:22:00,
2013-03-03 08:32:00,20.0,-99.9,30.11,North,6,16.0,18.0,-999,-99.99,,,-99.99,,2013-03-03 13:32:00,
2013-03-03 08:40:00,19.0,-99.9,30.11,North,10,14.0,19.0,-999,-99.99,,,-99.99,,2013-03-03 13:40:00,
2013-03-03 09:02:00,19.0,-99.9,30.81,North,10,14.0,19.0,-999,-99.99,,,-99.99,,2013-03-03 14:02:00,
2013-03-03 09:11:00,19.0,-99.9,30.11,North,10,14.0,19.0,-999,-99.99,,,-99.99,,2013-03-03 14:11:00,
2013-03-03 09:22:00,19.0,-99.9,30.11,North,10,14.0,19.0,-999,-99.99,,,-99.99,,2013-03-03 14:22:00,
2013-03-03 09:32:00,19.0,-99.9,30.11,North,10,14.0,19.0,-999,-99.99,,,-99.99,,2013-03-03 14:32:00,
2013-03-03 09:40:00,18.0,-99.9,30.11,NNE,15,15.0,18.0,-999,-99.99,,,-99.99,,2013-03-03 14:40:00,
2013-03-03 10:02:00,18.0,-99.9,30.81,NNE,15,15.0,18.0,-999,-99.99,,,-99.99,,2013-03-03 15:02:00,
2013-03-03 10:11:00,18.0,-99.9,30.11,NNE,15,15.0,18.0,-999,-99.99,,,-99.99,,2013-03-03 15:11:00,
2013-03-03 10:22:00,18.0,-99.9,30.11,NNE,15,15.0,18.0,-999,-99.99,,,-99.99,,2013-03-03 15:22:00,
2013-03-03 10:33:00,18.0,-99.9,30.11,NNE,15,15.0,18.0,-999,-99.99,,,-99.99,,2013-03-03 15:33:00,
2013-03-03 10:40:00,19.0,-99.9,30.11,North,4,14.0,16.0,-999,-99.99,,,-99.99,,2013-03-03 15:40:00,
2013-03-03 11:02:00,19.0,-99.9,30.81,North,4,14.0,16.0,-999,-99.99,,,-99.99,,2013-03-03 16:02:00,
2013-03-03 11:12:00,19.0,-99.9,30.11,North,4,14.0,16.0,-999,-99.99,,,-99.99,,2013-03-03 16:12:00,
2013-03-03 11:22:00,19.0,-99.9,30.11,North,4,14.0,16.0,-999,-99.99,,,-99.99,,2013-03-03 16:22:00,
2013-03-03 11:32:00,19.0,-99.9,30.11,North,4,14.0,16.0,-999,-99.99,,,-99.99,,2013-03-03 16:32:00,
2013-03-03 11:40:00,20.0,-99.9,30.11,NNE,33,11.0,15.0,-999,-99.99,,,-99.99,,2013-03-03 16:40:00,
2013-03-03 12:01:00,20.0,-99.9,30.81,NNE,33,11.0,15.0,-999,-99.99,,,-99.99,,2013-03-03 17:01:00,
2013-03-03 12:12:00,20.0,-99.9,30.11,NNE,33,11.0,15.0,-999,-99.99,,,-99.99,,2013-03-03 17:12:00,
2013-03-03 12:22:00,20.0,-99.9,30.11,NNE,33,11.0,15.0,-999,-99.99,,,-99.99,,2013-03-03 17:22:00,
2013-03-03 12:32:00,20.0,-99.9,30.11,NNE,33,11.0,15.0,-999,-99.99,,,-99.99,,2013-03-03 17:32:00,
2013-03-03 12:40:00,22.0,-99.9,30.09,NNE,19,10.0,14.0,-999,-99.99,,,-99.99,,2013-03-03 17:40:00,
2013-03-03 13:02:00,22.0,-99.9,30.79,NNE,19,10.0,14.0,-999,-99.99,,,-99.99,,2013-03-03 18:02:00,
2013-03-03 13:11:00,22.0,-99.9,30.09,NNE,19,10.0,14.0,-999,-99.99,,,-99.99,,2013-03-03 18:11:00,
2013-03-03 13:22:00,22.0,-99.9,30.09,NNE,19,10.0,14.0,-999,-99.99,,,-99.99,,2013-03-03 18:22:00,
2013-03-03 13:32:00,22.0,-99.9,30.09,NNE,19,10.0,14.0,-999,-99.99,,,-99.99,,2013-03-03 18:32:00,
2013-03-03 13:40:00,24.0,-99.9,30.78,North,1,10.0,15.0,-999,-99.99,,,-99.99,,2013-03-03 18:40:00,
2013-03-03 14:02:00,24.0,-99.9,30.78,North,1,10.0,15.0,-999,-99.99,,,-99.99,,2013-03-03 19:02:00,
2013-03-03 14:11:00,24.0,-99.9,30.78,North,1,10.0,15.0,-999,-99.99,,,-99.99,,2013-03-03 19:11:00,
2013-03-03 14:22:00,24.0,-99.9,30.78,North,1,10.0,15.0,-999,-99.99,,,-99.99,,2013-03-03 19:22:00,
2013-03-03 14:32:00,24.0,-99.9,30.78,North,1,10.0,15.0,-999,-99.99,,,-99.99,,2013-03-03 19:32:00,
2013-03-03 14:40:00,24.0,-99.9,30.07,NNW,340,10.0,16.0,-999,-99.99,,,-99.99,,2013-03-03 19:40:00,
2013-03-03 15:02:00,24.0,-99.9,30.77,NNW,340,10.0,16.0,-999,-99.99,,,-99.99,,2013-03-03 20:02:00,
2013-03-03 15:12:00,24.0,-99.9,30.07,NNW,340,10.0,16.0,-999,-99.99,,,-99.99,,2013-03-03 20:12:00,
2013-03-03 15:22:00,24.0,-99.9,30.07,NNW,340,10.0,16.0,-999,-99.99,,,-99.99,,2013-03-03 20:22:00,
2013-03-03 15:32:00,24.0,-99.9,30.07,NNW,340,10.0,16.0,-999,-99.99,,,-99.99,,2013-03-03 20:32:00,
2013-03-03 15:40:00,25.0,-99.9,30.07,North,1,8.0,15.0,-999,-99.99,,,-99.99,,2013-03-03 20:40:00,
2013-03-03 16:02:00,25.0,-99.9,30.77,North,1,8.0,15.0,-999,-99.99,,,-99.99,,2013-03-03 21:02:00,
2013-03-03 16:12:00,25.0,-99.9,30.07,North,1,8.0,15.0,-999,-99.99,,,-99.99,,2013-03-03 21:12:00,
2013-03-03 16:22:00,25.0,-99.9,30.07,North,1,8.0,15.0,-999,-99.99,,,-99.99,,2013-03-03 21:22:00,
2013-03-03 16:32:00,25.0,-99.9,30.07,North,1,8.0,15.0,-999,-99.99,,,-99.99,,2013-03-03 21:32:00,
2013-03-03 16:40:00,25.0,-99.9,30.07,NNE,15,8.0,13.0,-999,-99.99,,,-99.99,,2013-03-03 21:40:00,
2013-03-03 17:02:00,25.0,-99.9,30.77,NNE,15,8.0,13.0,-999,-99.99,,,-99.99,,2013-03-03 22:02:00,
2013-03-03 17:11:00,25.0,-99.9,30.07,NNE,15,8.0,13.0,-999,-99.99,,,-99.99,,2013-03-03 22:11:00,
2013-03-03 17:22:00,25.0,-99.9,30.07,NNE,15,8.0,13.0,-999,-99.99,,,-99.99,,2013-03-03 22:22:00,
2013-03-03 17:32:00,25.0,-99.9,30.07,NNE,15,8.0,13.0,-999,-99.99,,,-99.99,,2013-03-03 22:32:00,
2013-03-03 17:40:00,25.0,-99.9,30.08,North,5,11.0,16.0,-999,-99.99,,,-99.99,,2013-03-03 22:40:00,
2013-03-03 18:02:00,25.0,-99.9,30.78,North,5,11.0,16.0,-999,-99.99,,,-99.99,,2013-03-03 23:02:00,
2013-03-03 18:12:00,25.0,-99.9,30.08,North,5,11.0,16.0,-999,-99.99,,,-99.99,,2013-03-03 23:12:00,
2013-03-03 18:22:00,25.0,-99.9,30.08,North,5,11.0,16.0,-999,-99.99,,,-99.99,,2013-03-03 23:22:00,
2013-03-03 18:32:00,25.0,-99.9,30.08,North,5,11.0,16.0,-999,-99.99,,,-99.99,,2013-03-03 23:32:00,
2013-03-03 18:40:00,25.0,-99.9,30.08,North,350,16.0,18.0,-999,-99.99,,,-99.99,,2013-03-03 23:40:00,
2013-03-03 19:02:00,25.0,-99.9,30.78,North,350,16.0,18.0,-999,-99.99,,,-99.99,,2013-03-04 00:02:00,
2013-03-03 19:11:00,25.0,-99.9,30.08,North,350,16.0,18.0,-999,-99.99,,,-99.99,,2013-03-04 00:11:00,
2013-03-03 19:22:00,25.0,-99.9,30.08,North,350,16.0,18.0,-999,-99.99,,,-99.99,,2013-03-04 00:22:00,
2013-03-03 19:32:00,25.0,-99.9,30.08,North,350,16.0,18.0,-999,-99.99,,,-99.99,,2013-03-04 00:32:00,
2013-03-03 19:40:00,25.0,-99.9,30.09,NNE,14,15.0,19.0,-999,-99.99,,,-99.99,,2013-03-04 00:40:00,
2013-03-03 20:02:00,25.0,-99.9,30.79,NNE,14,15.0,19.0,-999,-99.99,,,-99.99,,2013-03-04 01:02:00,
2013-03-03 20:12:00,25.0,-99.9,30.09,NNE,14,15.0,19.0,-999,-99.99,,,-99.99,,2013-03-04 01:12:00,
2013-03-03 20:22:00,25.0,-99.9,30.09,NNE,14,15.0,19.0,-999,-99.99,,,-99.99,,2013-03-04 01:22:00,
2013-03-03 20:32:00,25.0,-99.9,30.09,NNE,14,15.0,19.0,-999,-99.99,,,-99.99,,2013-03-04 01:32:00,
2013-03-03 20:40:00,23.0,-99.9,30.10,North,10,14.0,19.0,-999,-99.99,,,-99.99,,2013-03-04 01:40:00,
2013-03-03 21:01:00,23.0,-99.9,30.80,North,10,14.0,19.0,-999,-99.99,,,-99.99,,2013-03-04 02:01:00,
2013-03-03 21:11:00,23.0,-99.9,30.10,North,10,14.0,19.0,-999,-99.99,,,-99.99,,2013-03-04 02:11:00,
2013-03-03 21:22:00,23.0,-99.9,30.10,North,10,14.0,19.0,-999,-99.99,,,-99.99,,2013-03-04 02:22:00,
2013-03-03 21:32:00,23.0,-99.9,30.10,North,10,14.0,19.0,-999,-99.99,,,-99.99,,2013-03-04 02:32:00,
2013-03-03 21:40:00,20.0,-99.9,30.12,NNE,15,13.0,16.0,-999,-99.99,,,-99.99,,2013-03-04 02:40:00,
2013-03-03 22:02:00,20.0,-99.9,30.82,NNE,15,13.0,16.0,-999,-99.99,,,-99.99,,2013-03-04 03:02:00,
2013-03-03 22:12:00,20.0,-99.9,30.12,NNE,15,13.0,16.0,-999,-99.99,,,-99.99,,2013-03-04 03:12:00,
2013-03-03 22:22:00,20.0,-99.9,30.12,NNE,15,13.0,16.0,-999,-99.99,,,-99.99,,2013-03-04 03:22:00,
2013-03-03 22:32:00,20.0,-99.9,30.12,NNE,15,13.0,16.0,-999,-99.99,,,-99.99,,2013-03-04 03:32:00,
2013-03-03 23:02:00,20.0,-99.9,30.81,NNE,22,9.0,15.0,-999,-99.99,,,-99.99,,2013-03-04 04:02:00,
2013-03-03 23:11:00,20.0,-99.9,30.11,NNE,22,9.0,15.0,-999,-99.99,,,-99.99,,2013-03-04 04:11:00,
2013-03-03 23:22:00,20.0,-99.9,30.11,NNE,22,9.0,15.0,-999,-99.99,,,-99.99,,2013-03-04 04:22:00,
2013-03-03 23:32:00,21.0,-99.9,30.10,North,8,10.0,24.0,-999,-99.99,,,-99.99,,2013-03-04 04:32:00,
2013-03-03 23:40:00,21.0,-99.9,30.11,NNE,13,11.0,16.0,-999,-99.99,,,-99.99,,2013-03-04 04:40:00,
2013-03-03 23:42:00,21.0,-99.9,30.10,North,8,10.0,24.0,-999,-99.99,,,-99.99,,2013-03-04 04:42:00,
2013-03-03 23:52:00,21.0,-99.9,30.10,North,8,10.0,24.0,-999,-99.99,,,-99.99,,2013-03-04 04:52:00,